AKST,Max TemperatureF,Mean TemperatureF,Min TemperatureF,Max Dew PointF,MeanDew PointF,Min DewpointF,Max Humidity, Mean Humidity, Min Humidity, Max Sea Level PressureIn, Mean Sea Level PressureIn, Min Sea Level PressureIn, Max VisibilityMiles, Mean VisibilityMiles, Min VisibilityMiles, Max Wind SpeedMPH, Mean Wind SpeedMPH, Max Gust SpeedMPH,PrecipitationIn, CloudCover, Events, WindDirDegrees
2012-1-1,-26,-34,-42,-34,-35,-36,69,69,69,30.09,30.01,29.88,10,9,5,10,5,,0.00,1,Snow,40
2012-1-2,-14,-26,-38,-20,-24,-36,84,75,68,29.90,29.84,29.81,10,8,2,10,5,,0.00,3,Snow,30
2012-1-3,-16,-20,-24,-22,-27,-31,78,74,69,29.98,29.93,29.88,10,7,3,12,5,,0.00,3,Snow,36
2012-1-4,-15,-24,-33,-22,-26,-36,78,73,69,29.88,29.73,29.64,10,6,2,20,7,,0.00,4,Snow,51
2012-1-5,-15,-25,-35,-20,-27,-36,84,74,69,29.68,29.62,29.55,10,7,2,20,13,,0.00,2,Snow,90
2012-1-6,-9,-16,-24,-16,-24,-31,79,74,70,29.67,29.62,29.59,10,5,0,23,7,,0.00,5,Snow,210
2012-1-7,-13,-16,-18,-18,-22,-24,84,76,70,29.63,29.53,29.41,5,3,2,28,22,32,0.00,4,Snow,228
2012-1-8,-15,-18,-20,-22,-24,-26,78,75,70,29.60,29.46,29.40,7,4,2,30,22,33,0.00,2,Snow,222
2012-1-9,-16,-22,-27,-23,-27,-35,76,73,69,29.83,29.75,29.62,10,7,2,31,20,34,0.00,4,Snow,196
2012-1-10,-26,-34,-43,-34,-35,-36,69,69,68,29.84,29.77,29.69,10,10,10,9,6,,0.00,4,,134
2012-1-11,-28,-35,-42,-36,-36,-36,69,68,68,30.06,29.82,29.69,10,10,7,10,6,,0.00,4,Snow,55
2012-1-12,-19,-25,-31,-26,-27,-36,76,73,69,30.40,30.20,30.04,10,7,2,20,13,,0.00,3,Snow,228
2012-1-13,-17,-18,-20,-24,-26,-27,76,73,70,30.83,30.62,30.40,10,6,2,23,21,,0.00,1,,231
2012-1-14,-18,-24,-31,-25,-30,-36,76,72,69,30.99,30.95,30.85,10,8,0,21,13,,0.00,0,Snow,182
2012-1-15,-6,-20,-33,-11,-21,-35,84,75,69,31.12,31.00,30.92,10,10,10,8,3,,0.00,5,,151
2012-1-16,-4,-8,-17,-10,-14,-23,84,78,70,31.29,29.14,28.22,10,10,10,6,1,,0.00,5,,264
2012-1-17,-15,-20,-26,-21,-27,-33,78,73,69,31.15,28.65,28.22,10,10,10,9,7,,0.00,0,,227
2012-1-18,8,-8,-24,4,-4,-32,87,78,64,31.08,30.61,30.42,10,10,5,25,10,,0.00,4,Snow,251
2012-1-19,7,0,-7,3,-7,-13,88,83,77,30.62,30.57,30.49,10,4,0,12,6,,0.00,8,Fog-Snow,16
2012-1-20,3,-2,-9,0,-7,-15,85,81,77,30.55,30.35,30.08,10,6,0,9,3,,0.00,7,Snow,259
2012-1-21,-9,-14,-18,-15,-22,-24,79,75,70,30.10,30.04,29.93,10,7,3,13,9,,0.00,3,Snow,334
2012-1-22,-15,-28,-42,-21,-30,-36,78,71,69,30.23,30.11,29.96,10,9,7,10,6,,0.00,1,,21
2012-1-23,-35,-40,-44,,,,,,,30.24,30.12,29.96,10,10,5,10,7,,0.00,0,,54
2012-1-24,-36,-40,-45,,,,,,,30.10,30.02,29.95,10,5,2,14,10,,0.00,1,,39
2012-1-25,-40,-42,-46,,,,,,,30.10,30.06,30.04,10,8,1,5,0,,0.00,0,,130
2012-1-26,-40,-42,-45,,,,,,,30.32,30.15,30.04,10,8,4,8,4,,0.00,0,,46
2012-1-27,-26,-36,-44,-34,-35,-36,69,69,66,30.41,30.35,30.28,10,8,2,12,4,,0.00,2,Snow,236
2012-1-28,-18,-22,-27,-25,-29,-35,76,72,69,30.28,29.92,29.56,10,2,0,37,18,44,0.00,5,Snow,218
2012-1-29,-18,-21,-25,-25,-27,-33,76,73,69,29.55,29.45,29.38,1,0,0,33,29,38,0.00,5,Snow,215
2012-1-30,-26,-30,-36,-33,-34,-36,73,70,69,29.53,29.48,29.43,,,,15,12,,0.00,0,,215
2012-1-31,-35,-40,-45,,,,,,,29.73,29.63,29.55,10,6,0,7,3,,0.00,0,Fog,183